FREGAT R/B, 43235

Orbit data source: Space-Track

FREGAT R/B, 43235 is space debris originally from a launch on Fri, 09 Mar 2018 UTC launched from the French Guiana (FRGUI). Debris objects in space refer to the collection of defunct objects orbiting the Earth. Examples of debris include non-operational satellites, rocket bodies, and fragments generated from explosions, collisions, or faulty payload assembly.

Loading next visibility...
FREGAT R/B details
Identifier
43235, 2018-024E
Orbit
Active
Last TLE update14 hours ago
Origin
Flag of CISLavochkin (CIS)
ManufacturerLavochkin
MissionSpacecraft
Bus & MotorFREGAT, Unknown motor
Mass1,050 kg wet, 1,050 kg dry
Launch date (UTC)
2018-03-09 (7 years ago)
Launch vehicleUnknown
Launch site
French Guiana (FRGUI)
Object type
Payload
Rocket body
Debris
Shape & HBRIrr, 3.3 m
Radar Cross Section11.055 m², Large (>1 m²)

Expand to show TLE details & history

TLE from 14 hours ago
0 FREGAT R/B
1 43235U 18024E   24361.33011562 -.00000010  00000-0  00000-0 0  9991
2 43235   0.0243 189.7673 0008081 251.3347 278.9911  5.21348413129506
Epoch: 2024-12-26T07:55Z
Definitive object data (Epoch: 2024-12-26T07:55:21.989Z)
Latitude0.00474°
Longitude145.8474°
Altitude7,667.679 km
Speed5.328 km/s
True Right ascension00h 00m 00s
True Declination0° 00' 17"
Sunlit
Object was in daylight at TLE epoch
Visualization TLE readout
Latitude-0.00062°
Longitude160.83817°
Altitude7,664.904 km
Speed5.329 km/s
Apparent Right ascension02h 18m 46s
Apparent Declination-18° 47' 34"
Sunlit
Object is in daylight
Visualization observer readout
Local Sidereal Time21:18:16
Azimuth113.772° SE
Elevation-1.164°
Doppler factor1
Orbital elements
Apogee altitude7,685.505 km
Perigee altitude7,662.793 km
Semi-major axis14,052.286 km
Eccentricity0.0008081
Inclination0.0243°
RAAN189.7673°
Arg. of periapsis251.3347°
True anomaly278.89962°
Mean anomaly278.9911°
Eccentric anomaly278.94536°
Mean motion1.30293 °/min
BSTARUnknown
Orbital period276.3 mins
Loading maneuver chart data...
Loading historical data...
Loading historical data...
Loading historical data...
Loading historical data...
Loading historical data...
Loading historical data...
Loading historical data...
Other satellites on launch #24 in the year 2018 (2018-03-09 UTC)

FREGAT R/B Visibility forecast

Observer location: undefined°, undefined

Span
Click to sort rows by Start time (UTC) header in descending order
Start Az.
Max El. time (UTC)
Max El. Az.
Max El.
End time (UTC)
End Az.
72 mins2024-12-27 02:08:12.161Z230.799° WSW2024-12-27 02:44:12.161Z180.329° SSW23.688°2024-12-27 03:20:12.161Z129.603° SE
71 mins2024-12-27 07:51:12.161Z229.457° WSW2024-12-27 08:26:12.161Z179.872° S23.673°2024-12-27 09:02:12.161Z129.329° SE
72 mins2024-12-27 13:32:12.161Z230.259° WSW2024-12-27 14:08:12.161Z179.572° S23.721°2024-12-27 14:44:12.161Z129.215° SE
72 mins2024-12-27 19:14:12.161Z230.168° WSW2024-12-27 19:50:12.161Z179.5° S23.743°2024-12-27 20:26:12.161Z129.158° SE
|